KC3ROS Weather Reports


Display with metric or nautical units.
time (UTC)temp
F
wind
direction
speed
MPH
gust
MPH
rain 1hr
in
rain 24hr
in
rain mn
in
humidity
%
barometer
mb
20260902132427 78 249 2.0 5.0 0.00 0.00 0.00 89 1018.2
20260902131921 78 225 1.0 3.0 0.00 0.00 0.00 89 1018.2
20260902131419 77 242 3.0 5.0 0.00 0.00 0.00 91 1018.3
20260902130918 77 272 4.0 7.0 0.00 0.00 0.00 90 1018.3
20260902130414 76 277 0.0 3.0 0.00 0.00 0.00 92 1018.4
20260902125908 76 242 0.0 3.0 0.00 0.00 0.00 93 1018.1
20260902125405 75 244 4.0 5.0 0.00 0.00 0.00 94 1018.0
20260902124901 75 253 2.0 3.0 0.00 0.00 0.00 95 1018.2
20260902124356 74 257 3.0 4.0 0.00 0.00 0.00 96 1018.0
20260902123851 74 239 1.0 3.0 0.00 0.00 0.00 96 1018.2
20260902123348 74 269 0.0 2.0 0.00 0.00 0.00 97 1018.4
20260902122846 74 244 2.0 2.0 0.00 0.00 0.00 98 1018.4
20260902122342 73 220 0.0 3.0 0.00 0.00 0.00 98 1018.2
20260902121841 73 209 0.0 3.0 0.00 0.00 0.00 98 1018.2
20260902121336 73 280 0.0 3.0 0.00 0.00 0.00 98 1018.1
20260902120832 73 239 2.0 3.0 0.00 0.00 0.00 98 1018.0
20260902120328 73 253 2.0 4.0 0.00 0.00 0.00 99 1018.1
20260902115822 73 240 0.0 4.0 0.00 0.00 0.00 99 1018.1
20260902115319 73 223 2.0 3.0 0.00 0.00 0.00 99 1018.0
20260902114815 73 279 1.0 3.0 0.00 0.00 0.00 99 1017.8
20260902114311 73 232 0.0 3.0 0.00 0.00 0.00 99 1017.6
20260902113805 73 250 2.0 3.0 0.00 0.00 0.00 99 1017.4
20260902113300 73 214 1.0 4.0 0.00 0.00 0.00 99 1017.4
20260902112800 72 265 2.0 3.0 0.00 0.00 0.00 99 1017.8
20260902112257 72 264 2.0 5.0 0.00 0.00 0.00 99 1017.5
20260902111752 72 248 1.0 3.0 0.00 0.00 0.00 99 1017.6
20260902111249 72 247 3.0 4.0 0.00 0.00 0.00 99 1017.6
20260902110744 72 244 2.0 4.0 0.00 0.00 0.00 99 1017.7
20260902110239 72 269 0.0 4.0 0.00 0.00 0.00 99 1017.7
20260902105734 72 230 1.0 3.0 0.00 0.00 0.00 99 1017.7
20260902105229 72 269 0.0 3.0 0.00 0.00 0.00 99 1017.6
20260902104724 72 212 0.0 3.0 0.00 0.00 0.00 99 1017.2
20260902104221 72 223 1.0 4.0 0.00 0.00 0.00 99 1017.2
20260902103720 72 0 0.0 2.0 0.00 0.00 0.00 99 1017.2
20260902103220 72 275 1.0 4.0 0.00 0.00 0.00 99 1017.3
20260902102715 72 205 0.0 4.0 0.00 0.00 0.00 99 1017.4
20260902102213 72 236 1.0 4.0 0.00 0.00 0.00 99 1017.3
20260902101708 72 242 2.0 4.0 0.00 0.00 0.00 99 1017.4
20260902101203 72 250 2.0 5.0 0.00 0.00 0.00 99 1017.3
20260902100701 72 236 1.0 4.0 0.00 0.00 0.00 99 1017.5
20260902100156 72 243 2.0 5.0 0.00 0.00 0.00 99 1017.5
20260902095655 72 243 2.0 4.0 0.00 0.00 0.00 99 1017.4
20260902095149 72 210 2.0 5.0 0.00 0.00 0.00 99 1017.5
20260902094645 72 258 3.0 4.0 0.00 0.00 0.00 99 1017.5
20260902094141 72 200 2.0 5.0 0.00 0.00 0.00 99 1017.4
20260902093640 72 206 0.0 4.0 0.00 0.00 0.00 99 1017.5
20260902093135 72 254 1.0 3.0 0.00 0.00 0.00 99 1017.6
20260902092630 72 205 1.0 3.0 0.00 0.00 0.00 99 1017.4
20260902092125 72 44 0.0 3.0 0.00 0.00 0.00 99 1017.6
20260902091620 72 212 1.0 4.0 0.00 0.00 0.00 99 1017.6
20260902091117 72 284 0.0 3.0 0.00 0.00 0.00 99 1017.7
20260902090613 72 221 1.0 3.0 0.00 0.00 0.00 99 1017.7
20260902090111 72 181 1.0 4.0 0.00 0.00 0.00 99 1017.5
20260902085611 72 227 0.0 2.0 0.00 0.00 0.00 99 1017.6
20260902085107 72 269 0.0 1.0 0.00 0.00 0.00 99 1017.6
20260902084603 72 219 0.0 2.0 0.00 0.00 0.00 99 1017.5
20260902084058 72 269 0.0 2.0 0.00 0.00 0.00 99 1017.5
20260902083553 72 191 0.0 2.0 0.00 0.00 0.00 99 1017.6
20260902083048 72 282 0.0 2.0 0.00 0.00 0.00 99 1017.6
20260902082544 72 256 1.0 1.0 0.00 0.00 0.00 99 1017.6
20260902082040 72 242 0.0 2.0 0.00 0.00 0.00 99 1017.5
20260902081536 72 229 0.0 2.0 0.00 0.00 0.00 99 1017.6
20260902081036 72 263 2.0 2.0 0.00 0.00 0.00 99 1017.5
20260902080532 72 222 1.0 2.0 0.00 0.00 0.00 99 1017.6
20260902080028 72 205 0.0 3.0 0.00 0.00 0.00 99 1017.5
20260902075527 72 234 1.0 5.0 0.00 0.00 0.00 99 1017.6
20260902075024 72 252 1.0 3.0 0.00 0.00 0.00 98 1017.9
20260902074518 72 229 0.0 3.0 0.00 0.00 0.00 98 1017.9
20260902074013 73 262 2.0 3.0 0.00 0.00 0.00 98 1017.8
20260902073509 73 251 2.0 3.0 0.00 0.00 0.00 98 1017.8
20260902073006 73 223 0.0 4.0 0.00 0.00 0.00 98 1017.8
20260902072500 73 230 2.0 3.0 0.00 0.00 0.00 97 1017.8
20260902071951 73 239 3.0 3.0 0.00 0.00 0.00 97 1017.9
20260902071450 73 239 2.0 4.0 0.00 0.00 0.00 97 1017.7
20260902070947 73 263 2.0 3.0 0.00 0.00 0.00 97 1018.0
20260902070443 73 241 2.0 3.0 0.00 0.00 0.00 97 1017.8
20260902065941 73 265 1.0 2.0 0.00 0.00 0.00 97 1017.7
20260902065436 73 237 0.0 1.0 0.00 0.00 0.00 97 1017.9
20260902064931 73 244 1.0 2.0 0.00 0.00 0.00 96 1017.6
20260902064427 73 228 1.0 2.0 0.00 0.00 0.00 96 1017.8
20260902063923 73 245 1.0 2.0 0.00 0.00 0.00 96 1017.9
20260902063422 73 266 0.0 1.0 0.00 0.00 0.00 96 1017.9
20260902062918 73 242 0.0 2.0 0.00 0.00 0.00 96 1017.8
20260902062417 73 247 0.0 1.0 0.00 0.00 0.00 96 1017.9
20260902061916 73 257 0.0 2.0 0.00 0.00 0.00 96 1017.7
20260902061412 73 253 0.0 2.0 0.00 0.00 0.00 96 1017.8
20260902060908 73 222 0.0 2.0 0.00 0.00 0.00 96 1017.9
20260902060404 73 250 0.0 2.0 0.00 0.00 0.00 95 1017.7
20260902055900 73 246 0.0 1.0 0.00 0.00 0.00 95 1017.8
20260902055356 74 233 0.0 2.0 0.00 0.00 0.00 95 1017.8
20260902054851 74 269 0.0 0.0 0.00 0.00 0.00 94 1017.6
20260902054346 74 278 0.0 1.0 0.00 0.00 0.00 94 1017.5
20260902053841 74 242 0.0 2.0 0.00 0.00 0.00 94 1017.7
20260902053336 74 238 2.0 4.0 0.00 0.00 0.00 94 1017.5
20260902052835 74 246 1.0 3.0 0.00 0.00 0.00 93 1017.5
20260902052331 74 240 2.0 4.0 0.00 0.00 0.00 93 1017.6
20260902051825 74 237 2.0 3.0 0.00 0.00 0.00 93 1017.4
20260902051320 74 251 1.0 4.0 0.00 0.00 0.00 93 1017.5
20260902050814 75 253 1.0 4.0 0.00 0.00 0.00 92 1017.5
20260902050314 75 218 0.0 3.0 0.00 0.00 0.00 92 1017.4
20260902045809 75 234 0.0 2.0 0.00 0.00 0.00 92 1017.5
20260902045306 75 250 0.0 2.0 0.00 0.00 0.00 92 1017.3
20260902044801 75 233 0.0 2.0 0.00 0.00 0.00 92 1017.6
20260902044256 75 242 0.0 1.0 0.00 0.00 0.00 92 1017.5
20260902043750 75 246 1.0 2.0 0.00 0.00 0.00 92 1017.5
20260902043246 75 269 0.0 1.0 0.00 0.00 0.00 91 1017.4
20260902042745 75 250 1.0 1.0 0.00 0.00 0.00 91 1017.4
20260902042240 75 243 1.0 2.0 0.00 0.00 0.00 91 1017.5
20260902041736 75 226 1.0 2.0 0.00 0.00 0.00 91 1017.5
20260902041236 75 240 0.0 2.0 0.00 0.00 0.00 91 1017.4
20260902040735 75 239 1.0 1.0 0.00 0.00 0.00 91 1017.4
20260902040231 75 256 0.0 2.0 0.00 0.00 0.00 91 1017.2
20260902035729 75 237 0.0 1.0 0.00 0.00 0.00 91 1017.1
20260902035225 75 235 0.0 2.0 0.00 0.00 0.00 91 1017.3
20260902034723 75 299 0.0 2.0 0.00 0.00 0.00 91 1017.3
20260902034218 75 258 0.0 2.0 0.00 0.00 0.00 91 1017.2
20260902033716 75 243 0.0 2.0 0.00 0.00 0.00 90 1017.2
20260902033212 75 229 1.0 4.0 0.00 0.00 0.00 90 1016.8
20260902032710 75 252 0.0 2.0 0.00 0.00 0.00 90 1017.3
20260902032206 75 230 0.0 3.0 0.00 0.00 0.00 90 1017.1
20260902031705 75 249 1.0 3.0 0.00 0.00 0.00 89 1017.2
20260902031201 75 214 3.0 4.0 0.00 0.00 0.00 89 1017.3
20260902030657 75 245 3.0 3.0 0.00 0.00 0.00 89 1016.8
20260902030156 75 243 1.0 5.0 0.00 0.00 0.00 89 1017.3
20260902025650 76 239 2.0 3.0 0.00 0.00 0.00 88 1017.2
20260902025145 76 238 1.0 4.0 0.00 0.00 0.00 88 1017.3
20260902024641 76 241 2.0 3.0 0.00 0.00 0.00 87 1017.2
20260902024136 76 230 2.0 5.0 0.00 0.00 0.00 87 1017.2
20260902023631 76 269 3.0 5.0 0.00 0.00 0.00 87 1017.4
20260902023126 76 208 3.0 4.0 0.00 0.00 0.00 87 1017.4
20260902022620 76 253 1.0 5.0 0.00 0.00 0.00 87 1017.5
20260902022116 76 248 0.0 5.0 0.00 0.00 0.00 87 1017.3
20260902021611 76 269 0.0 4.0 0.00 0.00 0.00 87 1017.2
20260902021106 76 226 3.0 5.0 0.00 0.00 0.00 87 1017.2
20260902020602 77 258 2.0 6.0 0.00 0.00 0.00 87 1017.2
20260902020058 77 239 0.0 3.0 0.00 0.00 0.00 86 1017.2
20260902015553 77 236 1.0 3.0 0.00 0.00 0.00 86 1017.0
20260902015049 77 235 2.0 4.0 0.00 0.00 0.00 85 1017.1
20260902014545 77 252 2.0 4.0 0.00 0.00 0.00 85 1017.3
20260902014040 77 224 3.0 5.0 0.00 0.00 0.00 85 1017.2
20260902013539 78 257 3.0 5.0 0.00 0.00 0.00 85 1017.2
20260902013035 77 236 3.0 5.0 0.00 0.00 0.00 85 1017.1
20260902012530 78 249 2.0 5.0 0.00 0.00 0.00 85 1017.0
20260902012026 78 249 2.0 3.0 0.00 0.00 0.00 85 1017.0
20260902011521 78 251 1.0 3.0 0.00 0.00 0.00 84 1017.0
20260902011021 78 241 2.0 3.0 0.00 0.00 0.00 84 1016.8
20260902010520 78 229 2.0 5.0 0.00 0.00 0.00 84 1016.6
20260902010016 78 246 1.0 4.0 0.00 0.00 0.00 83 1016.8
20260902005514 78 241 1.0 2.0 0.00 0.00 0.00 83 1016.4
20260902005010 79 240 2.0 5.0 0.00 0.00 0.00 83 1016.6
20260902004509 79 258 2.0 6.0 0.00 0.00 0.00 84 1016.5
20260902004005 79 260 2.0 3.0 0.00 0.00 0.00 84 1016.4
20260902003500 79 253 2.0 2.0 0.00 0.00 0.00 83 1016.7
20260902002955 79 220 2.0 3.0 0.00 0.00 0.00 83 1016.5
20260902002451 79 265 2.0 3.0 0.00 0.00 0.00 83 1016.6
20260902001950 79 251 2.0 3.0 0.00 0.00 0.00 83 1016.7
20260902001444 80 263 2.0 3.0 0.00 0.00 0.00 83 1016.6
20260902000940 80 263 3.0 4.0 0.00 0.00 0.00 82 1016.7
20260902000436 80 244 2.0 3.0 0.00 0.00 0.00 82 1016.6
20260901235930 80 290 0.0 3.0 0.00 0.00 0.00 81 1016.8
20260901235425 80 254 2.0 4.0 0.00 0.00 0.00 81 1016.7
20260901234921 81 257 0.0 5.0 0.00 0.00 0.00 80 1016.5
20260901234414 81 250 2.0 5.0 0.00 0.00 0.00 80 1016.6
20260901233909 81 233 2.0 6.0 0.00 0.00 0.00 79 1016.8
20260901233404 81 252 2.0 5.0 0.00 0.00 0.00 80 1016.7
20260901232900 81 255 2.0 5.0 0.00 0.00 0.00 80 1016.8
20260901232355 81 253 3.0 6.0 0.00 0.00 0.00 80 1016.7
20260901231851 81 260 4.0 6.0 0.00 0.00 0.00 81 1016.6
20260901231347 82 261 0.0 4.0 0.00 0.00 0.00 80 1016.6
20260901230843 82 251 3.0 6.0 0.00 0.00 0.00 79 1016.6
20260901230342 82 273 4.0 5.0 0.00 0.00 0.00 79 1016.5
20260901225838 83 266 3.0 8.0 0.00 0.00 0.00 78 1016.6
20260901225337 83 278 0.0 6.0 0.00 0.00 0.00 78 1016.6
20260901224832 83 217 2.0 12.0 0.00 0.00 0.00 77 1016.6
20260901224329 83 243 7.0 9.0 0.00 0.00 0.00 77 1016.5
20260901223825 83 271 2.0 7.0 0.00 0.00 0.00 76 1016.4
20260901223320 84 259 4.0 7.0 0.00 0.00 0.00 75 1016.5
20260901222816 84 289 3.0 9.0 0.00 0.00 0.00 74 1016.4
20260901222312 84 248 3.0 8.0 0.00 0.00 0.00 74 1016.4
20260901221807 86 203 0.0 5.0 0.00 0.00 0.00 72 1016.4
20260901221303 86 221 3.0 6.0 0.00 0.00 0.00 71 1016.5
20260901220801 86 299 2.0 4.0 0.00 0.00 0.00 70 1016.6
20260901220256 86 288 6.0 7.0 0.00 0.00 0.00 70 1016.7
20260901215755 86 286 2.0 7.0 0.00 0.00 0.00 70 1017.0
20260901215254 86 208 2.0 9.0 0.00 0.00 0.00 69 1016.8
20260901214753 86 262 2.0 7.0 0.00 0.00 0.00 68 1016.8
20260901214251 87 277 4.0 9.0 0.00 0.00 0.00 67 1016.8
20260901213746 86 243 3.0 11.0 0.00 0.00 0.00 68 1016.8
20260901213241 86 300 6.0 11.0 0.00 0.00 0.00 66 1016.6
20260901212741 87 254 4.0 10.0 0.00 0.00 0.00 67 1016.4
20260901212236 88 115 3.0 8.0 0.00 0.00 0.00 65 1016.6
20260901211731 88 257 3.0 7.0 0.00 0.00 0.00 65 1016.4
20260901211228 88 228 2.0 7.0 0.00 0.00 0.00 67 1016.3
20260901210723 88 267 3.0 7.0 0.00 0.00 0.00 69 1016.3
20260901210219 88 248 3.0 7.0 0.00 0.00 0.00 67 1016.3
20260901205714 87 269 0.0 6.0 0.00 0.00 0.00 70 1016.1
20260901205204 88 268 6.0 8.0 0.00 0.00 0.00 68 1016.0
20260901204659 87 256 5.0 13.0 0.00 0.00 0.00 69 1016.3
20260901204155 86 266 2.0 9.0 0.00 0.00 0.00 68 1016.2
20260901203655 87 232 4.0 8.0 0.00 0.00 0.00 67 1016.2
20260901203150 87 278 2.0 8.0 0.00 0.00 0.00 67 1016.3
20260901202649 87 275 0.0 11.0 0.00 0.00 0.00 68 1016.5
20260901202145 88 227 4.0 6.0 0.00 0.00 0.00 67 1016.1
20260901201641 87 99 1.0 5.0 0.00 0.00 0.00 68 1016.1
20260901201139 88 251 4.0 9.0 0.00 0.00 0.00 65 1016.3
20260901200634 87 338 0.0 7.0 0.00 0.00 0.00 67 1016.4
20260901200129 88 252 5.0 13.0 0.00 0.00 0.00 67 1016.4
20260901195626 88 235 7.0 9.0 0.00 0.00 0.00 66 1016.5
20260901195121 87 214 4.0 10.0 0.00 0.00 0.00 67 1016.3
20260901194616 88 205 0.0 7.0 0.00 0.00 0.00 67 1016.4
20260901194111 87 269 3.0 10.0 0.00 0.00 0.00 68 1016.5
20260901193607 87 272 4.0 7.0 0.00 0.00 0.00 67 1016.5
20260901193101 86 225 2.0 10.0 0.00 0.00 0.00 68 1016.5
20260901192556 87 273 5.0 10.0 0.00 0.00 0.00 67 1016.6
20260901192051 87 274 3.0 9.0 0.00 0.00 0.00 68 1016.6
20260901191547 87 263 3.0 9.0 0.00 0.00 0.00 68 1016.5
20260901191043 87 254 3.0 7.0 0.00 0.00 0.00 70 1016.7
20260901190539 87 217 0.0 11.0 0.00 0.00 0.00 70 1017.0
20260901190037 86 86 2.0 9.0 0.00 0.00 0.00 71 1017.1
20260901185531 87 266 4.0 8.0 0.00 0.00 0.00 69 1016.8
20260901185030 87 246 4.0 13.0 0.00 0.00 0.00 67 1017.1
20260901184525 87 230 0.0 9.0 0.00 0.00 0.00 68 1017.1
20260901184021 88 249 5.0 7.0 0.00 0.00 0.00 69 1017.1
20260901183521 87 213 1.0 8.0 0.00 0.00 0.00 68 1017.0
20260901183016 87 254 3.0 9.0 0.00 0.00 0.00 67 1017.1
20260901182512 87 297 3.0 7.0 0.00 0.00 0.00 69 1017.1
20260901182007 87 237 2.0 10.0 0.00 0.00 0.00 70 1017.1
20260901181506 87 237 5.0 10.0 0.00 0.00 0.00 70 1017.1
20260901181000 88 273 3.0 9.0 0.00 0.00 0.00 69 1017.1
20260901180459 87 232 4.0 9.0 0.00 0.00 0.00 70 1017.3
20260901175957 86 260 3.0 7.0 0.00 0.00 0.00 72 1017.1
20260901175452 86 261 5.0 10.0 0.00 0.00 0.00 72 1017.3
20260901174947 87 221 6.0 10.0 0.00 0.00 0.00 72 1017.3
20260901174443 86 278 4.0 9.0 0.00 0.00 0.00 72 1017.3
20260901173939 86 272 5.0 11.0 0.00 0.00 0.00 72 1017.5
20260901173434 87 0 0.0 7.0 0.00 0.00 0.00 72 1017.4
20260901172930 87 275 4.0 14.0 0.00 0.00 0.00 71 1017.5
20260901172425 86 234 3.0 11.0 0.00 0.00 0.00 72 1017.3
20260901171923 86 212 3.0 11.0 0.00 0.00 0.00 73 1017.3
20260901171422 86 282 3.0 9.0 0.00 0.00 0.00 73 1017.5
20260901170920 87 235 4.0 11.0 0.00 0.00 0.00 71 1017.4
20260901170415 87 250 4.0 7.0 0.00 0.00 0.00 73 1017.4
20260901165909 86 279 2.0 10.0 0.00 0.00 0.00 72 1017.4
20260901165404 86 256 4.0 6.0 0.00 0.00 0.00 75 1017.5
20260901164900 86 217 0.0 7.0 0.00 0.00 0.00 75 1017.5
20260901164356 85 299 3.0 5.0 0.00 0.00 0.00 76 1017.6
20260901163855 85 272 5.0 10.0 0.00 0.00 0.00 77 1017.6
20260901163350 85 192 2.0 7.0 0.00 0.00 0.00 77 1017.6
20260901162845 84 265 6.0 9.0 0.00 0.00 0.00 77 1017.6
20260901162343 85 284 3.0 7.0 0.00 0.00 0.00 76 1017.6
20260901161838 84 216 1.0 8.0 0.00 0.00 0.00 78 1017.5
20260901161332 84 17 0.0 9.0 0.00 0.00 0.00 79 1017.7
20260901160827 83 280 3.0 9.0 0.00 0.00 0.00 79 1017.5
20260901160324 83 213 1.0 7.0 0.00 0.00 0.00 79 1017.6
20260901155823 82 207 3.0 7.0 0.00 0.00 0.00 80 1017.4
20260901155318 82 223 2.0 9.0 0.00 0.00 0.00 80 1017.7
20260901154815 82 178 1.0 8.0 0.00 0.00 0.00 81 1017.6
20260901154313 82 250 3.0 7.0 0.00 0.00 0.00 80 1017.6
20260901153808 82 261 4.0 8.0 0.00 0.00 0.00 81 1017.5
20260901153308 82 263 8.0 8.0 0.00 0.00 0.00 81 1017.5
20260901152807 82 262 2.0 8.0 0.00 0.00 0.00 81 1017.3
20260901152306 82 256 8.0 10.0 0.00 0.00 0.00 81 1017.5
20260901151802 82 333 0.0 4.0 0.00 0.00 0.00 83 1017.3
20260901151256 81 264 5.0 6.0 0.00 0.00 0.00 83 1017.5
20260901150755 82 274 0.0 5.0 0.00 0.00 0.00 83 1017.3
20260901150254 81 248 3.0 7.0 0.00 0.00 0.00 84 1017.4
20260901145751 80 239 3.0 7.0 0.00 0.00 0.00 86 1017.1
20260901145246 80 242 3.0 8.0 0.00 0.00 0.00 86 1017.1
20260901144741 79 251 2.0 6.0 0.00 0.00 0.00 87 1017.3
20260901144237 79 228 3.0 7.0 0.00 0.00 0.00 87 1017.4
20260901143732 78 260 3.0 10.0 0.00 0.00 0.00 87 1017.3
20260901143228 78 231 2.0 9.0 0.00 0.00 0.00 87 1017.3
20260901142724 78 265 4.0 4.0 0.00 0.00 0.00 89 1017.5
20260901142223 78 239 2.0 8.0 0.00 0.00 0.00 89 1017.3
20260901141718 77 281 2.0 9.0 0.00 0.00 0.00 90 1017.5
20260901141213 77 215 4.0 9.0 0.00 0.00 0.00 90 1017.4
20260901140712 77 255 2.0 8.0 0.00 0.00 0.00 90 1017.3
20260901140211 77 250 3.0 5.0 0.00 0.00 0.00 91 1017.3
20260901135706 77 258 5.0 8.0 0.00 0.00 0.00 91 1017.4
20260901135200 77 264 3.0 5.0 0.00 0.00 0.00 91 1017.5
20260901134656 77 280 3.0 6.0 0.00 0.00 0.00 91 1017.2
20260901134151 76 257 2.0 5.0 0.00 0.00 0.00 91 1017.4
20260901133650 76 255 4.0 7.0 0.00 0.00 0.00 91 1017.3
20260901133149 76 237 2.0 6.0 0.00 0.00 0.00 91 1017.4